Location: Omaha
(41.2590°N, 95.9380°W)
Time: 03:21:05
(UTC-05:00)

ISS - Pass Details

Date: 16 October 2017
Orbit: 401 x 408 km, 51.6° (Epoch: 22 October)

Event Time Altitude Azimuth Distance (km) Brightness Sun altitude
Rises 19:51:25 0° 293° (WNW) 2,323 1.3 -14.0°
Reaches altitude 10° 19:53:50 10° 276° (W) 1,461 0.4 -14.5°
Maximum altitude 19:56:19 20° 227° (SW) 1,006 -1.3 -14.9°
Drops below altitude 10° 19:58:46 10° 178° (S) 1,456 -1.1 -15.4°
Enters shadow 20:00:22 - 165° (SSE) 2,001 -0.5 -15.7°
